Weather History for Limnos, Greece

Change the Weather History Date:

Sunday, October 13, 2013

  Actual Average Record
Temperature  
Mean Temperature 65 °F -  
Max Temperature 70 °F 65 °F 77 °F (1997)
Min Temperature 60 °F 51 °F 50 °F (1998)
Growing Degree Days 15 (Base 50)    
Moisture  
Dew Point 59 °F    
Average Humidity 83    
Maximum Humidity 94    
Minimum Humidity 57    
Precipitation  
Precipitation 0.00 in 0.07 in - ()
Sea Level Pressure  
Sea Level Pressure 30.18 in    
Wind  
Wind Speed 6 mph ()    
Max Wind Speed 17 mph    
Max Gust Speed -    
Visibility 5.7 miles    
Events Rain    
Averages and records for this station are not official NWS values.
T = Trace of Precipitation, MM = Missing Value Source: Averaged Metar Reports

Daily Weather History Graph

Daily Weather History Graph

Search for Another Location

Airport:

Trip Planner

Search our weather history database for the weather conditions in past years. The results will help you decide how hot, cold, wet, or windy it might be!

Date:

Astronomy

Oct. 13, 2013 Rise Set
Actual Time 7:27 AM EEST 6:42 PM EEST
Civil Twilight 7:00 AM EEST 7:09 PM EEST
Nautical Twilight 6:28 AM EEST 7:41 PM EEST
Astronomical Twilight 5:57 AM EEST 8:12 PM EEST
Moon 3:20 PM EEST (10/13) 1:16 AM EEST (10/13)
Length of Visible Light 12h 09m
Length of Day
11h 15m
Waxing Gibbous, 66% of the Moon is Illuminated
Oct 13
Waxing Gibbous
Oct 19
Full
Oct 27
Last Quarter
Nov 3
New
Nov 10
First Quarter

Hourly Weather History & Observations

Time (EEST) Temp. Dew Point Humidity Pressure Visibility Wind Dir Wind Speed Gust Speed Precip Events Conditions
12:20 AM 62.6 °F 60.8 °F 94% 30.18 in - Calm Calm - N/A   Unknown
12:50 AM 62.6 °F 60.8 °F 94% 30.18 in - Variable 2.3 mph - N/A Rain Light Rain
1:20 AM 62.6 °F 60.8 °F 94% 30.18 in - Variable 2.3 mph - N/A   Unknown
1:50 AM 62.6 °F 60.8 °F 94% 30.18 in - North 4.6 mph - N/A Rain Light Rain
2:20 AM 62.6 °F 60.8 °F 94% 30.18 in - Calm Calm - N/A   Unknown
2:50 AM 62.6 °F 60.8 °F 94% 30.18 in 6.2 mi North 5.8 mph - N/A   Mostly Cloudy
3:00 AM 63 °F 62 °F 93% 30.20 in 6 mi North 5.8 mph - -   Mostly Cloudy
3:20 AM 62.6 °F 60.8 °F 94% 30.18 in - Variable 1.2 mph - N/A   Unknown
3:50 AM 62.6 °F 60.8 °F 94% 30.18 in - NE 5.8 mph - N/A   Unknown
4:20 AM 62.6 °F 60.8 °F 94% 30.15 in - NE 9.2 mph - N/A   Unknown
4:50 AM 62.6 °F 60.8 °F 94% 30.18 in - NE 10.4 mph - N/A   Unknown
5:20 AM 62.6 °F 60.8 °F 94% 30.18 in 6.2 mi NE 8.1 mph - N/A   Partly Cloudy
5:50 AM 62.6 °F 59.0 °F 88% 30.18 in 6.2 mi NNE 6.9 mph - N/A   Partly Cloudy
6:20 AM 60.8 °F 59.0 °F 94% 30.18 in 6.2 mi NE 4.6 mph - N/A   Partly Cloudy
6:50 AM 62.6 °F 59.0 °F 88% 30.18 in 6.2 mi NNE 8.1 mph - N/A   Partly Cloudy
7:20 AM 62.6 °F 59.0 °F 88% 30.18 in 4.3 mi NE 5.8 mph - N/A   Partly Cloudy
7:50 AM 60.8 °F 57.2 °F 88% 30.18 in 4.3 mi NNE 3.5 mph - N/A   Scattered Clouds
8:20 AM 64.4 °F 60.8 °F 88% 30.18 in 4.3 mi NNE 9.2 mph - N/A   Scattered Clouds
8:50 AM 64.4 °F 60.8 °F 88% 30.21 in 5.0 mi ENE 6.9 mph - N/A   Scattered Clouds
9:00 AM 65 °F 60 °F 81% 30.22 in 5 mi ENE 6.9 mph - -   Mist
9:20 AM 64.4 °F 60.8 °F 88% 30.21 in 5.0 mi ENE 6.9 mph - N/A   Scattered Clouds
9:50 AM 66.2 °F 59.0 °F 78% 30.21 in 5.0 mi NE 11.5 mph - N/A   Scattered Clouds
10:20 AM 68.0 °F 59.0 °F 73% 30.21 in 5.6 mi NE 11.5 mph - N/A   Scattered Clouds
10:50 AM 68.0 °F 59.0 °F 73% 30.21 in 5.6 mi NE 9.2 mph - N/A   Scattered Clouds
11:50 AM 69.8 °F 59.0 °F 68% 30.21 in 6.2 mi NNE 15.0 mph - N/A   Scattered Clouds
12:20 PM 69.8 °F 59.0 °F 68% 30.21 in 6.2 mi NNE 15.0 mph - N/A   Scattered Clouds
12:50 PM 69.8 °F 59.0 °F 68% 30.21 in 6.2 mi NNE 17.3 mph - N/A   Partly Cloudy
1:20 PM 69.8 °F 59.0 °F 68% 30.21 in 6.2 mi NNE 17.3 mph - N/A   Partly Cloudy
1:50 PM 69.8 °F 57.2 °F 64% 30.18 in 6.2 mi NE 17.3 mph - N/A   Partly Cloudy
2:20 PM 69.8 °F 57.2 °F 64% 30.18 in 6.2 mi NE 17.3 mph - N/A   Partly Cloudy
2:50 PM 69.8 °F 59.0 °F 68% 30.18 in 6.2 mi NNE 13.8 mph - N/A   Partly Cloudy
3:00 PM 70 °F 58 °F 57% 30.19 in 6 mi NNE 13.8 mph - -   Scattered Clouds
3:20 PM 69.8 °F 59.0 °F 68% 30.18 in 6.2 mi NNE 13.8 mph - N/A   Partly Cloudy
3:50 PM 68.0 °F 57.2 °F 68% 30.18 in 6.2 mi NNE 16.1 mph - N/A   Partly Cloudy
5:50 PM 66.2 °F 57.2 °F 73% 30.15 in - NNE 13.8 mph - N/A   Clear
6:20 PM 66.2 °F 57.2 °F 73% 30.15 in - NNE 13.8 mph - N/A   Clear
6:50 PM 64.4 °F 59.0 °F 83% 30.15 in - NNE 9.2 mph - N/A   Clear
7:20 PM 64.4 °F 59.0 °F 83% 30.15 in - NNE 8.1 mph - N/A   Clear
7:50 PM 64.4 °F 59.0 °F 83% 30.18 in - NNE 8.1 mph - N/A   Clear
8:20 PM 64.4 °F 59.0 °F 83% 30.18 in - NNE 8.1 mph - N/A   Clear
8:50 PM 62.6 °F 59.0 °F 88% 30.15 in - NE 5.8 mph - N/A   Clear
9:00 PM 63 °F 58 °F 80% 30.18 in 6 mi NE 5.8 mph - -  
9:20 PM 62.6 °F 59.0 °F 88% 30.15 in - NE 5.8 mph - N/A   Clear
9:50 PM 60.8 °F 57.2 °F 88% 30.18 in - NE 4.6 mph - N/A   Clear
10:20 PM 60.8 °F 57.2 °F 88% 30.18 in - NE 4.6 mph - N/A   Clear
10:50 PM 60.8 °F 57.2 °F 88% 30.18 in - NNE 4.6 mph - N/A   Unknown
11:20 PM 60.8 °F 59.0 °F 94% 30.18 in - North 4.6 mph - N/A   Unknown
11:50 PM 60.8 °F 59.0 °F 94% 30.18 in - NE 4.6 mph - N/A   Unknown